ONEWEB-0299 (49088 NORAD) Tracking and Keplerian Element Data

This shows tracking and keplerian element data for the satellite.

Feedback or suggestion? Click here.




ElementValue
Catalog49088
NameONEWEB-0299
Epoch Orbit351
Epoch Day300.58334491
Epoch Year2021
RAAN344.3838
Inclination87.5341
Eccentricity0.0021868
Argument of Perigee68.907
Mean Anonmoly21.9854
Mean Motion14.29223797
Decay Rate-0.0136725
L11 49088U 21075P 21300.58334491 -.01367250 00000-0 -57909+0 0 9992
L22 49088 87.5341 344.3838 0021868 68.9070 21.9854 14.29223797 3511

Live tracking and technical data element details for ONEWEB-0299 (NORAD 49088). ONEWEB-0299 can be tracked NOW for your location showing map with azimuth and elevation plus other details from your city location.

Track the satellite on the map from your city or location and see movement details for azimuth, elevation, latitude, longitude, range, height, and movement on the map or in text.







IsCatalogInMostPopularTable: catalog: 49088, numindb: 14
Update: records affected: 1



GetName: 49088 ONEWEB-0299

Hit Count: updated at: Thu, 28 Oct 2021 10:15:16 GMT